SCP
0 0 0 0 0 0 0 0 0 0 0 0 0 0 0 0 0 0 0 0 0 0 0 0 0 0 0 0 1 1 1 0 2 3 2 1 0 0 0 0 0 0 0 0
0 0 0 0 0 0 0 0 0 0 0 0 0 0 0 0 0 0 0 0 0 0 0 0 0 0 0 0 1 1 0 0 1 0 0 1 0 0 0 0 0 0 0 0
0 0 0 0 0 0 0 0 0 0 0 -0 0 0 0 0 0 0 0 0 0 0 0 0 0 0 0 1 1 1 0 0 1 0 0 0 0 0 0 0 0 0 0 0
0 0 0 0 0 0 0 0 0 0 0 0 0 0 0 0 0 0 0 0 0 0 0 0 0 0 1 1 2 1 0 0 0 1 1 1 0 0 0 0 0 0 0 0
0 0 0 0 0 0 0 0 0 0 0 0 0 0 0 0 0 0 0 0 0 0 1 1 2 2 3 2 2 1 1 1 1 1 1 1 0 0 0 0 0 0 0 0
0 0 0 0 0 0 0 0 0 0 0 0 0 0 0 0 0 0 0 0 0 0 0 0 0 0 1 1 1 0 1 1 1 0 0 0 0 0 0 0 0 0 0 0
0 0 0 0 0 0 -0 0 0 0 0 0 -0 0 0 0 0 0 -0 0 0 0 0 0 0 0 0 0 0 0 0 0 0 0 0 0 0 0 0 0 0 0 0 0
0 -0 -0 0 0 0 0 0 0 0 0 0 0 0 0 0 -0 -0 0 0 0 0 0 0 0 0 0 0 0 1 0 0 0 0 0 0 0 0 0 0 0 0 0 0
0 -0 0 0 0 0 0 0 0 0 0 0 0 0 0 0 0 0 0 0 0 0 0 0 0 0 0 0 0 0 1 1 1 0 0 0 0 0 0 0 0 0 0 0
0 0 0 0 0 0 0 0 0 0 0 0 0 0 0 0 0 0 0 0 0 0 0 0 0 0 0 0 0 0 0 0 0 0 1 1 0 0 0 0 0 0 0 0
0 0 0 0 0 0 0 0 0 0 0 0 0 0 0 0 0 0 0 0 0 0 0 0 0 0 0 0 0 0 0 0 0 0 0 0 0 0 0 0 0 0 0 0
0 0 -0 0 0 0 0 0 0 0 0 0 0 0 0 0 0 0 0 0 0 0 0 0 0 0 0 0 0 0 0 0 0 0 0 0 0 0 0 0 0 0 -0 -0
0 0 0 0 0 0 0 0 0 0 0 0 0 0 0 0 0 0 0 0 0 0 0 0 0 0 0 -0 0 0 0 0 0 0 0 0 0 0 0 0 0 0 0 0
0 0 0 0 0 0 0 0 0 0 0 0 0 0 0 0 0 0 0 0 0 0 0 0 0 0 0 0 0 0 0 0 0 0 0 0 0 0 0 0 0 0 0 0
0 0 0 0 0 0 0 0 0 0 0 0 0 0 0 0 0 0 0 0 0 0 0 0 0 0 0 0 0 0 0 0 0 0 0 0 0 0 0 0 0 0 0 0
0 0 0 0 0 0 0 0 0 0 0 0 0 0 0 0 0 0 0 0 0 0 0 0 0 0 0 0 0 0 0 0 0 0 0 0 0 0 0 0 0 0 0 0
0 0 0 0 -0 0 0 0 0 0 0 0 0 0 0 0 0 0 0 0 0 0 0 0 0 0 0 0 0 0 0 0 0 0 0 0 0 0 0 0 0 0 0 0
0 0 0 0 0 0 0 0 0 0 0 0 0 0 0 0 0 0 0 0 0 0 0 0 0 0 0 0 0 0 0 0 0 0 0 0 0 0 0 0 0 0 0 0
0 0 0 0 0 0 0 0 0 0 0 0 0 0 -0 0 0 0 0 0 0 0 0 0 0 0 0 0 0 0 0 0 0 0 0 0 0 0 0 0 -0 -0 -0 -0
0 0 0 0 0 0 0 0 0 0 0 0 0 0 0 0 0 0 0 0 0 0 0 0 0 0 0 0 0 0 0 0 0 0 0 0 0 0 0 -0 -0 -0 -0 -0
0 0 0 0 0 0 0 0 0 0 0 0 0 0 0 0 0 0 0 0 0 0 0 0 0 0 0 0 0 0 0 0 0 0 0 0 0 0 0 0 -0 -0 -0 0
0 0 0 0 0 0 0 0 0 0 0 0 0 0 0 0 0 0 0 0 0 0 0 0 0 0 0 0 0 0 0 0 0 0 0 0 0 0 0 -0 -0 -0 -0 0
0 0 0 0 0 0 0 0 0 0 0 0 0 0 0 0 0 0 0 0 0 0 0 0 0 0 0 0 0 0 0 0 0 0 0 0 0 -0 -0 -0 -0 -0 0 0
0 0 0 0 0 0 0 0 0 0 0 0 0 0 0 0 0 0 0 0 0 0 0 0 0 0 0 0 0 0 0 0 0 0 0 0 0 0 -0 -0 0 0 0 0
0 0 -0 -0 -0 0 0 0 0 0 0 0 0 0 0 0 0 0 0 0 0 0 0 0 0 0 0 0 0 0 0 0 0 -0 -0 -0 -0 -0 -0 0 0 0 0 -0
0 0 0 0 -0 0 0 0 0 0 0 0 0 0 0 0 0 0 0 0 0 0 0 0 0 0 0 0 0 0 0 -0 -0 -0 -0 -0 -0 0 -0 0 -0 -0 -0 -0
Wind_Speed_500mb
31 12 40 32 26 11 10 12 16 11 26 11 20 38 33 41 37 33 51 50 50 60 59 61 60 52 47 59 62 45 59 68 81 74 65 60 62 57 58 51 53 52 51 62
16 41 18 16 15 20 21 19 31 12 25 12 28 37 42 29 33 51 59 57 55 51 63 70 62 57 61 58 62 52 54 59 71 81 70 73 68 61 55 47 45 40 42 49
30 18 34 23 24 24 25 29 26 23 17 15 12 32 18 16 39 49 54 56 50 37 19 47 65 59 63 71 59 55 37 55 57 59 75 81 77 75 71 56 58 54 51 58
24 37 28 41 32 27 30 33 27 34 18 15 9 13 8 12 19 13 33 35 29 19 19 22 35 51 42 55 42 38 37 53 57 65 74 74 81 84 90 50 60 60 63 75
23 35 36 38 45 36 32 22 31 39 30 11 16 3 15 7 14 14 18 21 23 31 26 23 16 20 34 39 34 34 32 38 45 51 50 54 66 77 80 68 69 63 73 81
19 29 36 43 39 37 35 30 21 33 8 12 34 14 11 10 15 9 6 44 49 70 67 55 42 31 28 19 20 21 28 36 42 39 40 45 52 62 64 74 78 71 69 73
21 32 24 28 34 42 37 24 8 8 9 16 13 11 14 12 11 11 12 49 59 73 73 64 56 53 36 36 31 28 27 28 36 34 36 40 41 55 54 59 55 60 69 74
10 17 27 24 36 16 10 32 9 11 7 11 2 10 11 15 5 8 42 68 69 71 71 65 54 46 45 37 34 29 25 26 31 24 31 40 47 51 56 50 46 42 39 47
9 13 7 27 23 20 24 13 34 4 1 6 3 12 9 29 26 24 53 47 66 63 61 60 49 37 30 23 22 14 12 21 26 21 27 37 42 48 57 51 56 57 54 50
18 7 10 11 4 22 22 9 9 3 9 5 8 5 3 19 22 5 25 28 43 66 66 59 50 42 37 30 21 17 18 9 9 15 21 24 26 29 34 37 35 44 46 46
22 19 8 8 15 25 11 15 9 13 11 9 4 2 5 11 17 15 15 30 50 54 65 65 62 52 40 41 42 33 25 30 30 21 17 8 7 8 7 9 12 13 14 17
12 8 10 15 2 8 10 9 9 10 8 7 10 6 3 18 23 16 22 41 61 58 58 61 60 55 52 50 46 45 43 38 33 30 24 23 25 27 26 27 27 26 29 29
9 1 4 4 5 4 9 13 24 10 10 14 15 7 5 22 18 22 23 44 58 63 57 46 55 56 49 45 41 38 36 36 32 25 23 22 17 15 17 16 13 10 11 12
2 8 11 12 5 5 11 6 10 12 8 10 11 13 13 22 13 7 19 45 45 40 43 44 53 50 47 42 38 34 30 27 22 19 18 15 16 19 17 15 14 10 5 4
4 13 9 6 6 9 4 10 8 9 7 10 11 18 24 30 30 27 23 36 45 37 37 44 52 46 43 37 29 23 18 15 14 12 13 17 14 12 13 15 17 17 19 18
7 3 7 7 7 1 17 11 11 8 14 13 7 15 7 16 36 37 35 20 35 43 48 48 40 36 31 22 16 12 15 17 16 13 8 9 9 10 9 12 17 23 26 29
8 8 7 9 30 25 5 27 18 12 9 10 9 10 19 9 13 11 42 54 52 51 51 39 31 26 20 13 9 9 17 23 19 12 10 13 16 19 22 26 32 37 41 43
11 12 7 16 18 5 9 23 18 12 12 11 15 23 19 31 37 51 46 58 55 51 41 32 20 13 6 6 11 18 22 21 22 28 32 34 36 37 41 45 47 49 51 53
5 9 6 8 5 9 21 13 15 34 16 7 18 22 59 45 68 38 52 51 54 47 40 35 25 16 8 4 5 6 14 16 17 24 34 40 46 49 52 55 58 59 60 58
2 8 7 7 8 7 5 7 18 13 16 19 30 35 38 25 11 8 37 32 30 23 18 15 10 4 5 2 4 7 8 16 21 24 30 39 45 53 58 59 60 60 62 66
7 7 7 7 7 5 5 10 10 12 12 17 43 28 25 8 18 39 23 17 18 16 13 9 3 3 5 6 13 17 16 19 20 27 36 41 42 47 52 57 59 64 71 78
5 6 1 5 9 1 12 12 10 15 34 52 55 56 56 47 34 25 20 23 16 13 10 11 14 11 8 9 13 16 21 23 28 35 41 46 51 53 57 64 70 75 76 61
4 7 7 6 7 8 28 42 57 55 52 46 49 47 47 44 43 38 35 30 24 18 16 13 10 11 14 19 24 28 33 38 43 48 53 58 62 65 68 73 76 69 52 45
8 4 9 10 9 18 43 46 46 44 47 50 47 44 37 40 31 34 31 23 15 9 6 9 13 18 24 31 38 44 49 56 64 67 66 66 68 68 63 55 45 41 36 33
5 9 11 13 18 24 30 43 54 55 49 45 40 35 33 24 28 20 16 8 3 7 14 22 26 31 36 43 51 57 62 64 63 63 61 56 47 40 34 29 28 27 23 21
7 8 7 7 34 28 24 50 45 44 40 32 29 27 22 14 11 4 2 8 14 21 24 30 34 38 45 52 58 58 56 56 53 45 36 29 26 25 25 24 19 14 16 12
Wind_Direction_500mb
211 195 223 224 229 245 262 232 254 230 236 216 249 262 259 253 241 236 244 247 242 237 238 241 241 241 245 246 245 217 198 210 208 203 200 199 203 211 218 220 222 227 231 233
234 232 230 216 226 201 229 256 255 295 260 202 252 257 253 234 230 234 235 245 252 257 252 240 235 235 241 242 239 228 205 207 211 212 207 206 212 206 212 212 210 206 218 227
221 248 212 226 233 232 227 236 249 247 293 265 274 287 233 224 214 226 236 249 258 238 229 237 232 232 242 235 237 229 218 206 206 211 207 211 213 218 220 223 230 239 248 259
235 231 257 213 234 226 233 232 246 259 261 259 134 270 248 200 201 207 232 238 186 162 192 211 227 228 238 229 231 217 216 195 200 208 208 224 235 227 242 237 242 261 239 244
216 196 222 233 228 234 251 240 241 249 250 260 263 202 268 240 234 241 228 197 153 125 123 104 159 197 195 204 201 203 188 196 211 217 231 240 245 241 232 229 237 247 246 242
237 230 207 229 237 235 245 247 302 294 227 238 246 164 269 194 200 247 159 157 130 116 112 109 109 122 134 170 179 169 198 209 225 220 234 248 244 233 238 238 238 254 252 242
243 248 260 263 224 235 223 222 204 274 194 220 200 190 214 246 209 243 226 158 133 121 113 116 115 101 132 174 181 196 199 210 222 219 231 241 250 240 250 252 252 259 257 256
182 251 233 241 227 194 213 195 181 209 225 221 276 249 258 268 51 139 141 133 124 115 110 106 109 107 96 102 183 202 214 215 211 229 241 244 243 246 248 258 262 261 265 274
175 242 298 210 209 174 241 195 203 173 346 83 283 317 37 356 111 133 128 128 122 118 112 107 99 92 93 96 99 118 173 215 224 228 240 244 249 262 254 267 271 266 264 264
185 295 261 239 230 250 225 209 152 53 155 98 305 89 27 348 350 324 112 96 116 119 115 113 112 106 96 88 79 80 81 97 105 199 218 227 246 249 252 258 263 256 254 251
166 177 258 345 196 226 243 223 198 131 138 136 185 228 155 50 18 23 4 86 113 117 118 116 113 110 104 105 104 101 91 89 89 104 106 97 41 310 328 326 287 294 273 265
183 151 218 229 259 326 228 270 157 153 189 159 114 253 118 69 46 18 48 73 90 105 113 115 117 118 113 108 106 107 107 102 96 94 91 78 84 85 85 84 82 80 83 78
167 125 118 336 352 248 201 233 219 99 126 200 161 222 168 87 53 22 51 81 96 102 97 103 115 114 121 120 120 113 108 105 102 107 106 105 96 94 86 84 86 68 52 40
53 157 182 178 162 243 168 196 115 155 132 148 186 148 143 112 130 59 65 95 88 89 93 107 120 119 121 121 119 117 110 104 93 86 73 60 37 27 18 4 354 339 327 305
326 185 140 69 323 2 3 98 115 103 123 132 185 147 161 148 144 145 144 113 111 110 124 121 117 118 121 127 125 120 109 92 61 38 37 44 29 360 326 315 315 317 320 316
311 49 111 350 308 221 252 135 113 106 102 96 89 110 153 146 141 140 127 142 107 113 116 118 118 114 108 110 102 64 24 8 348 333 355 26 8 351 347 323 320 315 312 310
127 138 139 181 173 167 239 180 188 149 147 144 170 134 142 134 122 185 142 138 127 126 128 126 119 106 95 73 37 356 331 328 329 335 329 318 317 313 310 308 305 304 306 306
147 170 212 151 171 89 0 175 154 139 166 197 135 165 123 116 113 117 125 124 126 129 132 124 120 111 83 28 360 343 329 323 322 323 324 313 308 306 303 303 306 306 306 308
220 171 101 115 214 133 35 5 124 121 53 157 156 137 121 122 99 95 122 123 118 122 123 122 122 114 86 6 313 282 302 316 322 317 315 311 309 308 309 311 314 316 315 314
16 45 115 113 88 115 200 100 123 86 68 3 99 128 139 150 96 180 129 117 111 106 110 117 96 53 333 88 192 258 285 303 317 317 299 302 305 305 309 313 315 314 313 312
12 10 69 62 102 42 40 341 35 71 160 136 104 123 128 94 131 138 123 94 77 76 95 95 216 215 150 221 264 283 286 289 298 298 301 303 305 307 308 309 309 311 312 312
121 104 126 67 77 107 359 21 95 145 118 109 104 111 110 116 125 137 128 135 152 157 169 213 228 187 196 244 270 284 292 296 295 293 296 299 302 303 305 306 308 309 310 309
65 164 142 97 183 290 72 104 118 116 110 103 97 100 110 104 113 116 118 128 129 142 156 164 196 228 259 280 290 298 300 298 298 299 299 298 298 300 300 302 304 307 307 310
38 141 119 86 70 84 101 113 111 108 105 108 108 105 103 98 102 104 108 116 134 151 211 250 264 279 297 303 307 308 307 306 306 304 301 299 299 299 300 302 303 306 312 316
259 29 88 83 83 82 95 103 108 105 104 101 99 102 102 114 92 96 98 89 40 296 286 286 289 291 297 303 307 308 309 307 304 305 306 307 308 309 310 314 321 320 323 319
347 162 125 176 165 116 104 120 119 104 103 110 121 110 95 89 89 61 4 301 293 289 288 291 293 297 299 302 303 303 303 304 307 309 314 319 325 328 330 331 336 348 351 349
Wind_Speed_850mb
31 12 40 32 26 11 10 12 16 11 26 11 20 38 33 41 37 33 51 50 50 60 59 61 60 52 47 59 62 45 59 68 81 74 65 60 62 57 58 51 53 52 51 62
16 41 18 16 15 20 21 19 31 12 25 12 28 37 42 29 33 51 59 57 55 51 63 70 62 57 61 58 62 52 54 59 71 81 70 73 68 61 55 47 45 40 42 49
30 18 34 23 24 24 25 29 26 23 17 15 12 32 18 16 39 49 54 56 50 37 19 47 65 59 63 71 59 55 37 55 57 59 75 81 77 75 71 56 58 54 51 58
24 37 28 41 32 27 30 33 27 34 18 15 9 13 8 12 19 13 33 35 29 19 19 22 35 51 42 55 42 38 37 53 57 65 74 74 81 84 90 50 60 60 63 75
23 35 36 38 45 36 32 22 31 39 30 11 16 3 15 7 14 14 18 21 23 31 26 23 16 20 34 39 34 34 32 38 45 51 50 54 66 77 80 68 69 63 73 81
19 29 36 43 39 37 35 30 21 33 8 12 34 14 11 10 15 9 6 44 49 70 67 55 42 31 28 19 20 21 28 36 42 39 40 45 52 62 64 74 78 71 69 73
21 32 24 28 34 42 37 24 8 8 9 16 13 11 14 12 11 11 12 49 59 73 73 64 56 53 36 36 31 28 27 28 36 34 36 40 41 55 54 59 55 60 69 74
10 17 27 24 36 16 10 32 9 11 7 11 2 10 11 15 5 8 42 68 69 71 71 65 54 46 45 37 34 29 25 26 31 24 31 40 47 51 56 50 46 42 39 47
9 13 7 27 23 20 24 13 34 4 1 6 3 12 9 29 26 24 53 47 66 63 61 60 49 37 30 23 22 14 12 21 26 21 27 37 42 48 57 51 56 57 54 50
18 7 10 11 4 22 22 9 9 3 9 5 8 5 3 19 22 5 25 28 43 66 66 59 50 42 37 30 21 17 18 9 9 15 21 24 26 29 34 37 35 44 46 46
22 19 8 8 15 25 11 15 9 13 11 9 4 2 5 11 17 15 15 30 50 54 65 65 62 52 40 41 42 33 25 30 30 21 17 8 7 8 7 9 12 13 14 17
12 8 10 15 2 8 10 9 9 10 8 7 10 6 3 18 23 16 22 41 61 58 58 61 60 55 52 50 46 45 43 38 33 30 24 23 25 27 26 27 27 26 29 29
9 1 4 4 5 4 9 13 24 10 10 14 15 7 5 22 18 22 23 44 58 63 57 46 55 56 49 45 41 38 36 36 32 25 23 22 17 15 17 16 13 10 11 12
2 8 11 12 5 5 11 6 10 12 8 10 11 13 13 22 13 7 19 45 45 40 43 44 53 50 47 42 38 34 30 27 22 19 18 15 16 19 17 15 14 10 5 4
4 13 9 6 6 9 4 10 8 9 7 10 11 18 24 30 30 27 23 36 45 37 37 44 52 46 43 37 29 23 18 15 14 12 13 17 14 12 13 15 17 17 19 18
7 3 7 7 7 1 17 11 11 8 14 13 7 15 7 16 36 37 35 20 35 43 48 48 40 36 31 22 16 12 15 17 16 13 8 9 9 10 9 12 17 23 26 29
8 8 7 9 30 25 5 27 18 12 9 10 9 10 19 9 13 11 42 54 52 51 51 39 31 26 20 13 9 9 17 23 19 12 10 13 16 19 22 26 32 37 41 43
11 12 7 16 18 5 9 23 18 12 12 11 15 23 19 31 37 51 46 58 55 51 41 32 20 13 6 6 11 18 22 21 22 28 32 34 36 37 41 45 47 49 51 53
5 9 6 8 5 9 21 13 15 34 16 7 18 22 59 45 68 38 52 51 54 47 40 35 25 16 8 4 5 6 14 16 17 24 34 40 46 49 52 55 58 59 60 58
2 8 7 7 8 7 5 7 18 13 16 19 30 35 38 25 11 8 37 32 30 23 18 15 10 4 5 2 4 7 8 16 21 24 30 39 45 53 58 59 60 60 62 66
7 7 7 7 7 5 5 10 10 12 12 17 43 28 25 8 18 39 23 17 18 16 13 9 3 3 5 6 13 17 16 19 20 27 36 41 42 47 52 57 59 64 71 78
5 6 1 5 9 1 12 12 10 15 34 52 55 56 56 47 34 25 20 23 16 13 10 11 14 11 8 9 13 16 21 23 28 35 41 46 51 53 57 64 70 75 76 61
4 7 7 6 7 8 28 42 57 55 52 46 49 47 47 44 43 38 35 30 24 18 16 13 10 11 14 19 24 28 33 38 43 48 53 58 62 65 68 73 76 69 52 45
8 4 9 10 9 18 43 46 46 44 47 50 47 44 37 40 31 34 31 23 15 9 6 9 13 18 24 31 38 44 49 56 64 67 66 66 68 68 63 55 45 41 36 33
5 9 11 13 18 24 30 43 54 55 49 45 40 35 33 24 28 20 16 8 3 7 14 22 26 31 36 43 51 57 62 64 63 63 61 56 47 40 34 29 28 27 23 21
7 8 7 7 34 28 24 50 45 44 40 32 29 27 22 14 11 4 2 8 14 21 24 30 34 38 45 52 58 58 56 56 53 45 36 29 26 25 25 24 19 14 16 12
Wind_Direction_850mb
211 195 223 224 229 245 262 232 254 230 236 216 249 262 259 253 241 236 244 247 242 237 238 241 241 241 245 246 245 217 198 210 208 203 200 199 203 211 218 220 222 227 231 233
234 232 230 216 226 201 229 256 255 295 260 202 252 257 253 234 230 234 235 245 252 257 252 240 235 235 241 242 239 228 205 207 211 212 207 206 212 206 212 212 210 206 218 227
221 248 212 226 233 232 227 236 249 247 293 265 274 287 233 224 214 226 236 249 258 238 229 237 232 232 242 235 237 229 218 206 206 211 207 211 213 218 220 223 230 239 248 259
235 231 257 213 234 226 233 232 246 259 261 259 134 270 248 200 201 207 232 238 186 162 192 211 227 228 238 229 231 217 216 195 200 208 208 224 235 227 242 237 242 261 239 244
216 196 222 233 228 234 251 240 241 249 250 260 263 202 268 240 234 241 228 197 153 125 123 104 159 197 195 204 201 203 188 196 211 217 231 240 245 241 232 229 237 247 246 242
237 230 207 229 237 235 245 247 302 294 227 238 246 164 269 194 200 247 159 157 130 116 112 109 109 122 134 170 179 169 198 209 225 220 234 248 244 233 238 238 238 254 252 242
243 248 260 263 224 235 223 222 204 274 194 220 200 190 214 246 209 243 226 158 133 121 113 116 115 101 132 174 181 196 199 210 222 219 231 241 250 240 250 252 252 259 257 256
182 251 233 241 227 194 213 195 181 209 225 221 276 249 258 268 51 139 141 133 124 115 110 106 109 107 96 102 183 202 214 215 211 229 241 244 243 246 248 258 262 261 265 274
175 242 298 210 209 174 241 195 203 173 346 83 283 317 37 356 111 133 128 128 122 118 112 107 99 92 93 96 99 118 173 215 224 228 240 244 249 262 254 267 271 266 264 264
185 295 261 239 230 250 225 209 152 53 155 98 305 89 27 348 350 324 112 96 116 119 115 113 112 106 96 88 79 80 81 97 105 199 218 227 246 249 252 258 263 256 254 251
166 177 258 345 196 226 243 223 198 131 138 136 185 228 155 50 18 23 4 86 113 117 118 116 113 110 104 105 104 101 91 89 89 104 106 97 41 310 328 326 287 294 273 265
183 151 218 229 259 326 228 270 157 153 189 159 114 253 118 69 46 18 48 73 90 105 113 115 117 118 113 108 106 107 107 102 96 94 91 78 84 85 85 84 82 80 83 78
167 125 118 336 352 248 201 233 219 99 126 200 161 222 168 87 53 22 51 81 96 102 97 103 115 114 121 120 120 113 108 105 102 107 106 105 96 94 86 84 86 68 52 40
53 157 182 178 162 243 168 196 115 155 132 148 186 148 143 112 130 59 65 95 88 89 93 107 120 119 121 121 119 117 110 104 93 86 73 60 37 27 18 4 354 339 327 305
326 185 140 69 323 2 3 98 115 103 123 132 185 147 161 148 144 145 144 113 111 110 124 121 117 118 121 127 125 120 109 92 61 38 37 44 29 360 326 315 315 317 320 316
311 49 111 350 308 221 252 135 113 106 102 96 89 110 153 146 141 140 127 142 107 113 116 118 118 114 108 110 102 64 24 8 348 333 355 26 8 351 347 323 320 315 312 310
127 138 139 181 173 167 239 180 188 149 147 144 170 134 142 134 122 185 142 138 127 126 128 126 119 106 95 73 37 356 331 328 329 335 329 318 317 313 310 308 305 304 306 306
147 170 212 151 171 89 0 175 154 139 166 197 135 165 123 116 113 117 125 124 126 129 132 124 120 111 83 28 360 343 329 323 322 323 324 313 308 306 303 303 306 306 306 308
220 171 101 115 214 133 35 5 124 121 53 157 156 137 121 122 99 95 122 123 118 122 123 122 122 114 86 6 313 282 302 316 322 317 315 311 309 308 309 311 314 316 315 314
16 45 115 113 88 115 200 100 123 86 68 3 99 128 139 150 96 180 129 117 111 106 110 117 96 53 333 88 192 258 285 303 317 317 299 302 305 305 309 313 315 314 313 312
12 10 69 62 102 42 40 341 35 71 160 136 104 123 128 94 131 138 123 94 77 76 95 95 216 215 150 221 264 283 286 289 298 298 301 303 305 307 308 309 309 311 312 312
121 104 126 67 77 107 359 21 95 145 118 109 104 111 110 116 125 137 128 135 152 157 169 213 228 187 196 244 270 284 292 296 295 293 296 299 302 303 305 306 308 309 310 309
65 164 142 97 183 290 72 104 118 116 110 103 97 100 110 104 113 116 118 128 129 142 156 164 196 228 259 280 290 298 300 298 298 299 299 298 298 300 300 302 304 307 307 310
38 141 119 86 70 84 101 113 111 108 105 108 108 105 103 98 102 104 108 116 134 151 211 250 264 279 297 303 307 308 307 306 306 304 301 299 299 299 300 302 303 306 312 316
259 29 88 83 83 82 95 103 108 105 104 101 99 102 102 114 92 96 98 89 40 296 286 286 289 291 297 303 307 308 309 307 304 305 306 307 308 309 310 314 321 320 323 319
347 162 125 176 165 116 104 120 119 104 103 110 121 110 95 89 89 61 4 301 293 289 288 291 293 297 299 302 303 303 303 304 307 309 314 319 325 328 330 331 336 348 351 349